Time,TemperatureF,DewpointF,PressureIn,WindDirection,WindDirectionDegrees,WindSpeedMPH,WindSpeedGustMPH,Humidity,HourlyPrecipIn,Conditions,Clouds,dailyrainin,SoftwareType,DateUTC
2013-02-28 00:00:00,38.6,29.7,30.01,West,273,4.0,4.0,70,0.00,,BKN050,0.01,VWS V14.01,2013-02-28 06:00:00,
2013-02-28 00:05:00,38.3,29.7,30.01,NW,308,8.0,8.0,71,0.00,,BKN050,0.00,VWS V14.01,2013-02-28 06:05:00,
2013-02-28 00:10:00,38.0,29.5,30.01,WNW,292,0.0,11.0,71,0.00,,BKN045,0.00,VWS V14.01,2013-02-28 06:10:00,
2013-02-28 00:15:00,37.8,29.6,30.01,NW,304,1.0,6.0,72,0.00,,BKN045,0.00,VWS V14.01,2013-02-28 06:15:00,
2013-02-28 00:20:00,37.6,29.4,30.01,WNW,297,3.0,7.0,72,0.00,,BKN045,0.00,VWS V14.01,2013-02-28 06:20:00,
2013-02-28 00:25:00,37.5,29.3,30.01,WNW,294,2.0,7.0,72,0.00,,BKN045,0.00,VWS V14.01,2013-02-28 06:25:00,
2013-02-28 00:30:00,37.4,29.2,30.01,WNW,297,2.0,8.0,72,0.00,,BKN045,0.00,VWS V14.01,2013-02-28 06:30:00,
2013-02-28 00:35:00,37.3,29.1,30.01,WNW,284,1.0,7.0,72,0.00,,BKN045,0.00,VWS V14.01,2013-02-28 06:35:00,
2013-02-28 00:40:00,37.2,29.4,30.02,West,281,3.0,6.0,73,0.00,,BKN045,0.00,VWS V14.01,2013-02-28 06:40:00,
2013-02-28 00:45:00,37.0,29.2,30.01,WNW,294,2.0,4.0,73,0.00,,BKN045,0.00,VWS V14.01,2013-02-28 06:45:00,
2013-02-28 00:50:00,36.8,29.0,30.02,NW,320,3.0,9.0,73,0.00,,BKN045,0.00,VWS V14.01,2013-02-28 06:50:00,
2013-02-28 00:55:00,36.8,29.3,30.02,WNW,303,3.0,6.0,74,0.00,,BKN045,0.00,VWS V14.01,2013-02-28 06:55:00,
2013-02-28 01:00:00,36.6,29.1,30.02,West,281,3.0,7.0,74,0.00,,BKN045,0.00,VWS V14.01,2013-02-28 07:00:00,
2013-02-28 01:05:00,36.5,29.0,30.02,WNW,296,0.0,4.0,74,0.00,,BKN045,0.00,VWS V14.01,2013-02-28 07:05:00,
2013-02-28 01:10:00,36.3,28.8,30.02,West,276,2.0,4.0,74,0.00,,SCT050,0.00,VWS V14.01,2013-02-28 07:10:00,
2013-02-28 01:15:00,36.1,29.0,30.02,WNW,286,0.0,4.0,75,0.00,,SCT050,0.00,VWS V14.01,2013-02-28 07:15:00,
2013-02-28 01:20:00,36.0,28.9,30.02,West,280,1.0,3.0,75,0.00,,SCT050,0.00,VWS V14.01,2013-02-28 07:20:00,
2013-02-28 01:25:00,35.8,28.7,30.02,West,275,3.0,4.0,75,0.00,,SCT050,0.00,VWS V14.01,2013-02-28 07:25:00,
2013-02-28 01:30:00,35.7,28.9,30.02,West,275,1.0,5.0,76,0.00,,SCT050,0.00,VWS V14.01,2013-02-28 07:30:00,
2013-02-28 01:35:00,35.6,28.8,30.02,West,279,0.0,6.0,76,0.00,,SCT050,0.00,VWS V14.01,2013-02-28 07:35:00,
2013-02-28 01:40:00,35.5,29.0,30.02,West,279,3.0,3.0,77,0.00,,SCT050,0.00,VWS V14.01,2013-02-28 07:40:00,
2013-02-28 01:45:00,35.3,28.8,30.01,WNW,299,1.0,4.0,77,0.00,,SCT050,0.00,VWS V14.01,2013-02-28 07:45:00,
2013-02-28 01:50:00,35.3,28.8,30.01,WNW,290,0.0,3.0,77,0.00,,SCT050,0.00,VWS V14.01,2013-02-28 07:50:00,
2013-02-28 01:55:00,35.1,28.6,30.01,WNW,302,0.0,2.0,77,0.00,,SCT050,0.00,VWS V14.01,2013-02-28 07:55:00,
2013-02-28 02:00:00,35.0,28.5,30.01,WNW,290,1.0,3.0,77,0.00,,SCT050,0.00,VWS V14.01,2013-02-28 08:00:00,
2013-02-28 02:05:00,34.9,28.8,30.01,WNW,295,0.0,1.0,78,0.00,,CLR,0.00,VWS V14.01,2013-02-28 08:05:00,
2013-02-28 02:10:00,34.8,28.6,30.01,WNW,302,0.0,2.0,78,0.00,,CLR,0.00,VWS V14.01,2013-02-28 08:10:00,
2013-02-28 03:01:00,34.9,29.7,30.01,WNW,289,0.0,1.0,81,0.00,,CLR,0.00,VWS V14.01,2013-02-28 09:01:00,
2013-02-28 03:06:00,35.1,29.9,30.01,WNW,287,1.0,1.0,81,0.00,,OVC036,0.00,VWS V14.01,2013-02-28 09:06:00,
2013-02-28 03:11:00,35.3,30.1,30.01,WNW,298,1.0,1.0,81,0.00,,OVC036,0.00,VWS V14.01,2013-02-28 09:11:00,
2013-02-28 03:16:00,35.5,30.3,30.01,West,279,2.0,2.0,81,0.00,,OVC036,0.00,VWS V14.01,2013-02-28 09:16:00,
2013-02-28 03:23:00,35.7,30.5,30.01,West,276,0.0,3.0,81,0.00,,OVC036,0.00,VWS V14.01,2013-02-28 09:23:00,
2013-02-28 03:28:00,35.7,30.5,30.01,WNW,292,1.0,5.0,81,0.00,,OVC036,0.00,VWS V14.01,2013-02-28 09:28:00,
2013-02-28 03:33:00,35.9,30.3,30.01,WNW,291,3.0,3.0,80,0.00,,OVC036,0.00,VWS V14.01,2013-02-28 09:33:00,
2013-02-28 03:38:00,35.9,30.3,30.01,WNW,286,0.0,4.0,80,0.00,,OVC036,0.00,VWS V14.01,2013-02-28 09:38:00,
2013-02-28 03:43:00,36.0,30.4,30.01,West,274,2.0,5.0,80,0.00,,OVC036,0.00,VWS V14.01,2013-02-28 09:43:00,
2013-02-28 03:48:00,36.1,30.5,30.01,West,264,3.0,3.0,80,0.00,,OVC036,0.00,VWS V14.01,2013-02-28 09:48:00,
2013-02-28 03:53:00,36.2,30.6,30.01,WNW,301,0.0,5.0,80,0.00,,OVC036,0.00,VWS V14.01,2013-02-28 09:53:00,
2013-02-28 03:58:00,36.2,30.6,30.01,WNW,283,2.0,4.0,80,0.00,,OVC036,0.00,VWS V14.01,2013-02-28 09:58:00,
2013-02-28 04:03:00,36.2,30.6,30.01,WNW,286,4.0,6.0,80,0.00,,OVC036,0.00,VWS V14.01,2013-02-28 10:03:00,
2013-02-28 04:08:00,36.3,30.7,30.01,West,274,7.0,7.0,80,0.00,,OVC036,0.00,VWS V14.01,2013-02-28 10:08:00,
2013-02-28 04:13:00,36.4,30.5,30.02,West,275,11.0,13.0,79,0.00,,OVC036,0.00,VWS V14.01,2013-02-28 10:13:00,
2013-02-28 04:18:00,36.5,30.6,30.02,West,273,5.0,6.0,79,0.00,,OVC036,0.00,VWS V14.01,2013-02-28 10:18:00,
2013-02-28 04:23:00,36.6,30.7,30.02,NW,305,6.0,8.0,79,0.00,,OVC036,0.00,VWS V14.01,2013-02-28 10:23:00,
2013-02-28 04:28:00,36.7,30.5,30.02,NW,324,2.0,6.0,78,0.00,,OVC036,0.00,VWS V14.01,2013-02-28 10:28:00,
2013-02-28 04:33:00,36.8,30.3,30.02,WNW,299,3.0,9.0,77,0.00,,OVC036,0.00,VWS V14.01,2013-02-28 10:33:00,
2013-02-28 04:38:00,36.9,30.4,30.02,West,271,3.0,12.0,77,0.00,,OVC036,0.00,VWS V14.01,2013-02-28 10:38:00,
2013-02-28 04:43:00,36.9,29.7,30.02,North,360,0.0,4.0,75,0.00,,OVC036,0.00,VWS V14.01,2013-02-28 10:43:00,
2013-02-28 04:48:00,37.0,29.8,30.02,NNW,347,3.0,8.0,75,0.00,,OVC036,0.00,VWS V14.01,2013-02-28 10:48:00,
2013-02-28 04:53:00,37.1,29.9,30.03,WNW,293,1.0,7.0,75,0.00,,OVC036,0.00,VWS V14.01,2013-02-28 10:53:00,
2013-02-28 04:58:00,37.1,29.6,30.02,NW,325,0.0,5.0,74,0.00,,OVC036,0.00,VWS V14.01,2013-02-28 10:58:00,
2013-02-28 05:03:00,37.1,29.6,30.03,North,5,2.0,7.0,74,0.00,,OVC036,0.00,VWS V14.01,2013-02-28 11:03:00,
2013-02-28 05:08:00,37.1,29.3,30.03,WNW,294,2.0,4.0,73,0.00,,OVC036,0.00,VWS V14.01,2013-02-28 11:08:00,
2013-02-28 05:13:00,37.2,29.0,30.03,WNW,294,11.0,11.0,72,0.00,,OVC036,0.00,VWS V14.01,2013-02-28 11:13:00,
2013-02-28 05:18:00,37.2,29.0,30.03,North,9,5.0,5.0,72,0.00,,OVC036,0.00,VWS V14.01,2013-02-28 11:18:00,
2013-02-28 05:23:00,37.2,29.0,30.04,WNW,295,0.0,5.0,72,0.00,,OVC036,0.00,VWS V14.01,2013-02-28 11:23:00,
2013-02-28 05:28:00,37.2,29.0,30.04,NNW,344,3.0,5.0,72,0.00,,OVC036,0.00,VWS V14.01,2013-02-28 11:28:00,
2013-02-28 05:33:00,37.2,29.0,30.04,North,355,2.0,7.0,72,0.00,,OVC036,0.00,VWS V14.01,2013-02-28 11:33:00,
2013-02-28 05:38:00,37.2,29.0,30.04,North,355,3.0,6.0,72,0.00,,OVC036,0.00,VWS V14.01,2013-02-28 11:38:00,
2013-02-28 05:43:00,37.2,28.7,30.04,NNW,339,6.0,6.0,71,0.00,,OVC036,0.00,VWS V14.01,2013-02-28 11:43:00,
2013-02-28 05:48:00,37.2,29.0,30.04,NW,317,4.0,6.0,72,0.00,,OVC036,0.00,VWS V14.01,2013-02-28 11:48:00,
2013-02-28 05:53:00,37.2,29.0,30.04,NW,310,1.0,4.0,72,0.00,,OVC036,0.00,VWS V14.01,2013-02-28 11:53:00,
2013-02-28 05:58:00,37.1,28.6,30.04,NW,323,0.0,4.0,71,0.00,,OVC036,0.00,VWS V14.01,2013-02-28 11:58:00,
2013-02-28 06:03:00,37.1,28.9,30.05,NW,304,1.0,5.0,72,0.00,,OVC036,0.00,VWS V14.01,2013-02-28 12:03:00,
2013-02-28 06:08:00,37.1,28.6,30.05,WNW,288,0.0,6.0,71,0.00,,OVC036,0.00,VWS V14.01,2013-02-28 12:08:00,
2013-02-28 06:13:00,37.1,28.9,30.05,NW,313,0.0,5.0,72,0.00,,OVC036,0.00,VWS V14.01,2013-02-28 12:13:00,
2013-02-28 06:18:00,37.1,28.9,30.05,NNW,333,1.0,3.0,72,0.00,,OVC036,0.00,VWS V14.01,2013-02-28 12:18:00,
2013-02-28 06:23:00,37.1,28.9,30.05,NW,324,0.0,3.0,72,0.00,,OVC036,0.00,VWS V14.01,2013-02-28 12:23:00,
2013-02-28 06:28:00,37.2,29.0,30.05,West,267,0.0,3.0,72,0.00,,OVC036,0.00,VWS V14.01,2013-02-28 12:28:00,
2013-02-28 06:33:00,37.2,29.0,30.05,NNW,342,0.0,3.0,72,0.00,,OVC036,0.00,VWS V14.01,2013-02-28 12:33:00,
2013-02-28 06:38:00,37.2,29.0,30.05,NW,323,2.0,6.0,72,0.00,,OVC036,0.00,VWS V14.01,2013-02-28 12:38:00,
2013-02-28 06:43:00,37.2,29.0,30.06,WNW,297,1.0,2.0,72,0.00,,OVC036,0.00,VWS V14.01,2013-02-28 12:43:00,
2013-02-28 06:48:00,37.2,29.0,30.06,West,276,3.0,6.0,72,0.00,,OVC036,0.00,VWS V14.01,2013-02-28 12:48:00,
2013-02-28 06:53:00,37.3,29.1,30.06,WNW,296,3.0,6.0,72,0.00,,OVC036,0.00,VWS V14.01,2013-02-28 12:53:00,
2013-02-28 06:58:00,37.3,29.1,30.06,WNW,286,2.0,6.0,72,0.00,,OVC036,0.00,VWS V14.01,2013-02-28 12:58:00,
2013-02-28 07:03:00,37.3,29.1,30.06,WNW,294,0.0,4.0,72,0.00,,OVC036,0.00,VWS V14.01,2013-02-28 13:03:00,
2013-02-28 07:08:00,37.4,29.2,30.06,WNW,284,2.0,6.0,72,0.00,,OVC036,0.00,VWS V14.01,2013-02-28 13:08:00,
2013-02-28 07:13:00,37.4,29.2,30.06,NW,325,0.0,6.0,72,0.00,,OVC036,0.00,VWS V14.01,2013-02-28 13:13:00,
2013-02-28 07:18:00,37.5,29.3,30.07,WNW,283,3.0,8.0,72,0.00,,OVC036,0.00,VWS V14.01,2013-02-28 13:18:00,
2013-02-28 07:23:00,37.5,29.3,30.07,West,281,3.0,7.0,72,0.00,,OVC036,0.00,VWS V14.01,2013-02-28 13:23:00,
2013-02-28 07:28:00,37.6,29.4,30.07,WNW,300,3.0,4.0,72,0.00,,OVC036,0.00,VWS V14.01,2013-02-28 13:28:00,
2013-02-28 07:33:00,37.7,29.5,30.07,NW,318,0.0,1.0,72,0.00,,OVC036,0.00,VWS V14.01,2013-02-28 13:33:00,
2013-02-28 07:38:00,37.7,29.8,30.07,WNW,290,0.0,7.0,73,0.00,,OVC036,0.00,VWS V14.01,2013-02-28 13:38:00,
2013-02-28 07:43:00,37.8,29.9,30.07,WNW,292,0.0,3.0,73,0.00,,OVC036,0.00,VWS V14.01,2013-02-28 13:43:00,
2013-02-28 07:48:00,37.8,29.9,30.07,WNW,282,3.0,4.0,73,0.00,,OVC036,0.00,VWS V14.01,2013-02-28 13:48:00,
2013-02-28 07:53:00,37.9,30.0,30.07,WNW,284,1.0,3.0,73,0.00,,OVC036,0.00,VWS V14.01,2013-02-28 13:53:00,
2013-02-28 07:58:00,37.9,30.0,30.08,NNW,340,0.0,3.0,73,0.00,,OVC036,0.00,VWS V14.01,2013-02-28 13:58:00,
2013-02-28 08:03:00,38.0,30.1,30.08,NNW,348,0.0,3.0,73,0.00,,OVC036,0.00,VWS V14.01,2013-02-28 14:03:00,
2013-02-28 08:08:00,38.1,30.2,30.08,NNW,331,1.0,5.0,73,0.00,,OVC036,0.00,VWS V14.01,2013-02-28 14:08:00,
2013-02-28 08:13:00,38.2,30.3,30.08,NNW,346,0.0,4.0,73,0.00,,OVC036,0.00,VWS V14.01,2013-02-28 14:13:00,
2013-02-28 08:18:00,38.4,30.5,30.08,NW,323,1.0,2.0,73,0.00,,OVC036,0.00,VWS V14.01,2013-02-28 14:18:00,
2013-02-28 08:23:00,38.5,30.3,30.08,NW,308,6.0,6.0,72,0.00,,OVC036,0.00,VWS V14.01,2013-02-28 14:23:00,
2013-02-28 08:28:00,38.7,30.1,30.08,WNW,300,1.0,7.0,71,0.00,,OVC036,0.00,VWS V14.01,2013-02-28 14:28:00,
2013-02-28 08:33:00,38.8,29.9,30.09,NW,304,0.0,9.0,70,0.00,,OVC036,0.00,VWS V14.01,2013-02-28 14:33:00,
2013-02-28 08:38:00,39.0,30.1,30.09,NNW,344,6.0,11.0,70,0.00,,OVC036,0.00,VWS V14.01,2013-02-28 14:38:00,
2013-02-28 08:43:00,39.1,29.8,30.09,NW,304,5.0,11.0,69,0.00,,OVC036,0.00,VWS V14.01,2013-02-28 14:43:00,
2013-02-28 08:48:00,39.2,29.9,30.09,North,355,3.0,11.0,69,0.00,,OVC036,0.00,VWS V14.01,2013-02-28 14:48:00,
2013-02-28 08:53:00,39.3,29.6,30.09,NW,315,9.0,9.0,68,0.00,,OVC036,0.00,VWS V14.01,2013-02-28 14:53:00,
2013-02-28 08:58:00,39.5,30.2,30.09,NNW,329,0.0,8.0,69,0.00,,OVC036,0.00,VWS V14.01,2013-02-28 14:58:00,
2013-02-28 09:03:00,40.0,31.0,30.09,WNW,284,5.0,5.0,70,0.00,,OVC036,0.00,VWS V14.01,2013-02-28 15:03:00,
2013-02-28 09:08:00,40.4,30.0,30.09,NNW,346,8.0,14.0,66,0.00,,OVC042,0.00,VWS V14.01,2013-02-28 15:08:00,
2013-02-28 09:13:00,40.8,30.3,30.09,NNW,332,4.0,8.0,66,0.00,,OVC042,0.00,VWS V14.01,2013-02-28 15:13:00,
2013-02-28 09:18:00,41.1,29.9,30.09,NNW,344,4.0,11.0,64,0.00,,OVC042,0.00,VWS V14.01,2013-02-28 15:18:00,
2013-02-28 09:23:00,41.7,30.8,30.09,NNW,347,2.0,11.0,65,0.00,,OVC042,0.00,VWS V14.01,2013-02-28 15:23:00,
2013-02-28 09:28:00,42.2,30.5,30.10,NNE,25,8.0,12.0,63,0.00,,OVC042,0.00,VWS V14.01,2013-02-28 15:28:00,
2013-02-28 09:33:00,42.3,30.6,30.09,North,350,12.0,12.0,63,0.00,,OVC042,0.00,VWS V14.01,2013-02-28 15:33:00,
2013-02-28 09:38:00,42.5,31.2,30.09,NNE,17,8.0,12.0,64,0.00,,OVC042,0.00,VWS V14.01,2013-02-28 15:38:00,
2013-02-28 09:43:00,42.6,30.5,30.09,NNE,17,5.0,15.0,62,0.00,,OVC042,0.00,VWS V14.01,2013-02-28 15:43:00,
2013-02-28 09:48:00,42.3,29.8,30.09,NW,321,5.0,13.0,61,0.00,,OVC042,0.00,VWS V14.01,2013-02-28 15:48:00,
2013-02-28 09:53:00,42.1,30.4,30.09,NW,325,9.0,19.0,63,0.00,,OVC042,0.00,VWS V14.01,2013-02-28 15:53:00,
2013-02-28 09:59:00,42.3,30.6,30.09,NNE,13,8.0,15.0,63,0.00,,OVC042,0.00,VWS V14.01,2013-02-28 15:59:00,
2013-02-28 10:04:00,42.9,30.8,30.10,NNW,346,0.0,7.0,62,0.00,,OVC042,0.00,VWS V14.01,2013-02-28 16:04:00,
2013-02-28 10:09:00,42.7,30.6,30.10,WNW,302,2.0,10.0,62,0.00,,OVC046,0.00,VWS V14.01,2013-02-28 16:09:00,
2013-02-28 10:14:00,42.2,30.1,30.10,NNE,30,2.0,12.0,62,0.00,,OVC046,0.00,VWS V14.01,2013-02-28 16:14:00,
2013-02-28 10:19:00,42.3,30.6,30.10,North,355,9.0,9.0,63,0.00,,OVC046,0.00,VWS V14.01,2013-02-28 16:19:00,
2013-02-28 10:24:00,41.8,30.5,30.10,North,355,1.0,7.0,64,0.00,,OVC046,0.00,VWS V14.01,2013-02-28 16:24:00,
2013-02-28 10:29:00,41.5,29.9,30.10,North,5,2.0,8.0,63,0.00,,OVC046,0.00,VWS V14.01,2013-02-28 16:29:00,
2013-02-28 10:34:00,41.5,29.9,30.10,North,355,3.0,9.0,63,0.00,,OVC046,0.00,VWS V14.01,2013-02-28 16:34:00,
2013-02-28 10:39:00,41.0,29.8,30.10,NW,321,5.0,10.0,64,0.00,,OVC046,0.00,VWS V14.01,2013-02-28 16:39:00,
2013-02-28 10:44:00,41.1,30.6,30.10,North,360,7.0,7.0,66,0.00,,OVC046,0.00,VWS V14.01,2013-02-28 16:44:00,
2013-02-28 10:49:00,42.0,31.5,30.10,NW,325,3.0,3.0,66,0.00,,OVC046,0.00,VWS V14.01,2013-02-28 16:49:00,
2013-02-28 10:54:00,42.1,30.8,30.10,NNW,339,6.0,9.0,64,0.00,,OVC046,0.00,VWS V14.01,2013-02-28 16:54:00,
2013-02-28 10:59:00,41.7,30.8,30.10,WNW,298,1.0,7.0,65,0.00,,OVC046,0.00,VWS V14.01,2013-02-28 16:59:00,
2013-02-28 11:04:00,41.4,30.1,30.10,North,355,3.0,8.0,64,0.00,,OVC046,0.00,VWS V14.01,2013-02-28 17:04:00,
2013-02-28 11:09:00,41.4,30.1,30.11,North,355,4.0,11.0,64,0.00,,OVC046,0.00,VWS V14.01,2013-02-28 17:09:00,
2013-02-28 11:14:00,42.5,31.6,30.10,West,271,0.0,5.0,65,0.00,,OVC046,0.00,VWS V14.01,2013-02-28 17:14:00,
2013-02-28 11:19:00,42.9,30.8,30.11,WNW,288,7.0,9.0,62,0.00,,OVC046,0.00,VWS V14.01,2013-02-28 17:19:00,
2013-02-28 11:24:00,42.6,30.5,30.11,NNW,328,1.0,11.0,62,0.00,,OVC046,0.00,VWS V14.01,2013-02-28 17:24:00,
2013-02-28 11:29:00,42.5,30.8,30.11,NNW,335,4.0,8.0,63,0.00,,OVC046,0.00,VWS V14.01,2013-02-28 17:29:00,
2013-02-28 11:34:00,42.4,30.7,30.11,North,355,4.0,10.0,63,0.00,,OVC046,0.00,VWS V14.01,2013-02-28 17:34:00,
2013-02-28 11:39:00,42.5,30.8,30.11,NNW,339,1.0,8.0,63,0.00,,OVC046,0.00,VWS V14.01,2013-02-28 17:39:00,
2013-02-28 11:44:00,42.7,31.0,30.11,NNW,331,3.0,7.0,63,0.00,,OVC046,0.00,VWS V14.01,2013-02-28 17:44:00,
2013-02-28 11:49:00,42.2,30.5,30.11,NNW,345,4.0,7.0,63,0.00,,OVC046,0.00,VWS V14.01,2013-02-28 17:49:00,
2013-02-28 11:54:00,42.3,30.2,30.11,North,360,0.0,8.0,62,0.00,,OVC046,0.00,VWS V14.01,2013-02-28 17:54:00,
2013-02-28 11:59:00,42.2,30.5,30.11,NNW,337,2.0,11.0,63,0.00,,OVC046,0.00,VWS V14.01,2013-02-28 17:59:00,
2013-02-28 12:04:00,42.3,30.6,30.11,West,270,2.0,6.0,63,0.00,,OVC046,0.00,VWS V14.01,2013-02-28 18:04:00,
2013-02-28 12:09:00,42.2,30.5,30.11,NNW,335,6.0,9.0,63,0.00,,OVC048,0.00,VWS V14.01,2013-02-28 18:09:00,
2013-02-28 12:14:00,42.1,30.4,30.11,NNW,340,3.0,6.0,63,0.00,,OVC048,0.00,VWS V14.01,2013-02-28 18:14:00,
2013-02-28 12:19:00,42.5,31.2,30.11,North,355,1.0,7.0,64,0.00,,OVC048,0.00,VWS V14.01,2013-02-28 18:19:00,
2013-02-28 12:24:00,42.7,30.6,30.11,North,350,0.0,6.0,62,0.00,,OVC048,0.00,VWS V14.01,2013-02-28 18:24:00,
2013-02-28 12:29:00,42.9,31.2,30.11,NNW,342,5.0,7.0,63,0.00,,OVC048,0.00,VWS V14.01,2013-02-28 18:29:00,
2013-02-28 12:34:00,42.4,30.3,30.11,North,360,4.0,9.0,62,0.00,,OVC048,0.00,VWS V14.01,2013-02-28 18:34:00,
2013-02-28 12:39:00,42.1,30.4,30.11,NNW,332,3.0,10.0,63,0.00,,OVC048,0.00,VWS V14.01,2013-02-28 18:39:00,
2013-02-28 12:44:00,42.2,30.5,30.11,NNW,347,7.0,10.0,63,0.00,,OVC048,0.00,VWS V14.01,2013-02-28 18:44:00,
2013-02-28 12:49:00,42.2,30.5,30.10,NNW,346,6.0,11.0,63,0.00,,OVC048,0.00,VWS V14.01,2013-02-28 18:49:00,
2013-02-28 12:54:00,42.1,30.4,30.10,NNW,342,2.0,5.0,63,0.00,,OVC048,0.00,VWS V14.01,2013-02-28 18:54:00,
2013-02-28 12:59:00,42.0,30.3,30.10,North,355,5.0,12.0,63,0.00,,OVC048,0.00,VWS V14.01,2013-02-28 18:59:00,
2013-02-28 13:04:00,42.4,31.5,30.10,WNW,286,4.0,6.0,65,0.00,,OVC048,0.00,VWS V14.01,2013-02-28 19:04:00,
2013-02-28 13:09:00,42.7,31.0,30.10,NNW,340,6.0,9.0,63,0.00,,OVC038,0.00,VWS V14.01,2013-02-28 19:09:00,
2013-02-28 13:14:00,42.8,31.5,30.11,NNW,338,0.0,6.0,64,0.00,,OVC038,0.00,VWS V14.01,2013-02-28 19:14:00,
2013-02-28 13:19:00,43.0,31.3,30.10,NW,318,0.0,9.0,63,0.00,,OVC038,0.00,VWS V14.01,2013-02-28 19:19:00,
2013-02-28 13:24:00,43.2,31.5,30.10,NNW,346,3.0,8.0,63,0.00,,OVC038,0.00,VWS V14.01,2013-02-28 19:24:00,
2013-02-28 13:29:00,43.5,31.4,30.10,NNW,327,0.0,11.0,62,0.00,,OVC038,0.00,VWS V14.01,2013-02-28 19:29:00,
2013-02-28 13:34:00,43.6,31.9,30.10,NNW,338,0.0,5.0,63,0.00,,OVC038,0.00,VWS V14.01,2013-02-28 19:34:00,
2013-02-28 13:39:00,43.4,31.3,30.10,NW,315,4.0,9.0,62,0.00,,OVC038,0.00,VWS V14.01,2013-02-28 19:39:00,
2013-02-28 13:44:00,43.1,30.6,30.10,NNW,331,0.0,8.0,61,0.00,,OVC038,0.00,VWS V14.01,2013-02-28 19:44:00,
2013-02-28 13:49:00,43.2,30.7,30.10,NNW,340,6.0,8.0,61,0.00,,OVC038,0.00,VWS V14.01,2013-02-28 19:49:00,
2013-02-28 13:54:00,43.1,31.0,30.10,North,11,2.0,10.0,62,0.00,,OVC038,0.00,VWS V14.01,2013-02-28 19:54:00,
2013-02-28 13:59:00,43.2,30.7,30.10,WNW,286,4.0,5.0,61,0.00,,OVC038,0.00,VWS V14.01,2013-02-28 19:59:00,
2013-02-28 14:04:00,42.8,30.3,30.10,NW,311,4.0,7.0,61,0.00,,OVC038,0.00,VWS V14.01,2013-02-28 20:04:00,
2013-02-28 14:09:00,42.6,30.5,30.10,NNW,334,2.0,7.0,62,0.00,,OVC047,0.00,VWS V14.01,2013-02-28 20:09:00,
2013-02-28 14:14:00,42.6,30.5,30.11,North,11,6.0,10.0,62,0.00,,OVC047,0.00,VWS V14.01,2013-02-28 20:14:00,
2013-02-28 14:19:00,42.7,30.6,30.11,North,360,1.0,8.0,62,0.00,,OVC047,0.00,VWS V14.01,2013-02-28 20:19:00,
2013-02-28 14:24:00,42.9,30.8,30.10,NNW,348,0.0,8.0,62,0.00,,OVC047,0.00,VWS V14.01,2013-02-28 20:24:00,
2013-02-28 14:29:00,42.9,30.8,30.11,North,5,3.0,5.0,62,0.00,,OVC047,0.00,VWS V14.01,2013-02-28 20:29:00,
2013-02-28 14:34:00,42.7,30.6,30.11,North,5,5.0,6.0,62,0.00,,OVC047,0.00,VWS V14.01,2013-02-28 20:34:00,
2013-02-28 14:39:00,42.7,31.4,30.11,NNW,348,3.0,7.0,64,0.00,,OVC047,0.00,VWS V14.01,2013-02-28 20:39:00,
2013-02-28 14:44:00,43.0,31.7,30.11,WNW,298,2.0,6.0,64,0.00,,OVC047,0.00,VWS V14.01,2013-02-28 20:44:00,
2013-02-28 14:49:00,43.3,31.6,30.11,NNW,344,1.0,7.0,63,0.00,,OVC047,0.00,VWS V14.01,2013-02-28 20:49:00,
2013-02-28 14:54:00,43.5,31.4,30.11,NW,307,4.0,5.0,62,0.00,,OVC047,0.00,VWS V14.01,2013-02-28 20:54:00,
2013-02-28 14:59:00,43.1,31.0,30.11,NW,315,2.0,5.0,62,0.00,,OVC047,0.00,VWS V14.01,2013-02-28 20:59:00,
2013-02-28 15:04:00,42.8,31.1,30.11,NNW,329,1.0,10.0,63,0.00,,OVC047,0.00,VWS V14.01,2013-02-28 21:04:00,
2013-02-28 15:09:00,43.1,31.8,30.11,North,350,2.0,7.0,64,0.00,,OVC035,0.00,VWS V14.01,2013-02-28 21:09:00,
2013-02-28 15:14:00,42.8,31.1,30.12,NNW,344,1.0,6.0,63,0.00,,OVC035,0.00,VWS V14.01,2013-02-28 21:14:00,
2013-02-28 15:19:00,42.8,31.5,30.12,NNW,338,0.0,5.0,64,0.00,,OVC035,0.00,VWS V14.01,2013-02-28 21:19:00,
2013-02-28 15:24:00,42.9,31.6,30.11,North,355,2.0,5.0,64,0.00,,OVC035,0.00,VWS V14.01,2013-02-28 21:24:00,
2013-02-28 15:29:00,42.8,31.1,30.11,North,355,3.0,6.0,63,0.00,,OVC035,0.00,VWS V14.01,2013-02-28 21:29:00,
2013-02-28 15:34:00,42.8,31.5,30.11,North,351,0.0,3.0,64,0.00,,OVC035,0.00,VWS V14.01,2013-02-28 21:34:00,
2013-02-28 15:39:00,42.9,31.6,30.11,NNW,336,1.0,3.0,64,0.00,,OVC035,0.00,VWS V14.01,2013-02-28 21:39:00,
2013-02-28 15:44:00,42.9,30.8,30.11,NW,311,0.0,5.0,62,0.00,,OVC035,0.00,VWS V14.01,2013-02-28 21:44:00,
2013-02-28 15:49:00,42.9,31.2,30.11,NNW,342,0.0,4.0,63,0.00,,OVC035,0.00,VWS V14.01,2013-02-28 21:49:00,
2013-02-28 15:54:00,42.7,30.6,30.11,NNW,336,0.0,3.0,62,0.00,,OVC035,0.00,VWS V14.01,2013-02-28 21:54:00,
2013-02-28 15:59:00,42.8,31.1,30.11,NW,304,3.0,5.0,63,0.00,,OVC035,0.00,VWS V14.01,2013-02-28 21:59:00,
2013-02-28 16:04:00,42.7,31.0,30.11,North,360,4.0,4.0,63,0.00,,OVC035,0.00,VWS V14.01,2013-02-28 22:04:00,
2013-02-28 16:09:00,42.5,30.8,30.11,WNW,296,1.0,5.0,63,0.00,,OVC045,0.00,VWS V14.01,2013-02-28 22:09:00,
2013-02-28 16:14:00,42.4,30.7,30.11,NW,310,1.0,5.0,63,0.00,,OVC045,0.00,VWS V14.01,2013-02-28 22:14:00,
2013-02-28 16:19:00,42.3,30.6,30.11,West,281,1.0,5.0,63,0.00,,OVC045,0.00,VWS V14.01,2013-02-28 22:19:00,
2013-02-28 16:24:00,42.2,30.5,30.11,North,355,6.0,8.0,63,0.00,,OVC045,0.00,VWS V14.01,2013-02-28 22:24:00,
2013-02-28 16:29:00,42.1,30.8,30.11,NNW,333,0.0,5.0,64,0.00,,OVC045,0.00,VWS V14.01,2013-02-28 22:29:00,
2013-02-28 16:34:00,42.1,30.8,30.11,North,355,0.0,4.0,64,0.00,,OVC045,0.00,VWS V14.01,2013-02-28 22:34:00,
2013-02-28 16:39:00,42.1,30.8,30.11,North,355,5.0,5.0,64,0.00,,OVC045,0.00,VWS V14.01,2013-02-28 22:39:00,
2013-02-28 16:44:00,42.0,30.7,30.11,WNW,289,0.0,5.0,64,0.00,,OVC045,0.00,VWS V14.01,2013-02-28 22:44:00,
2013-02-28 16:49:00,41.9,31.0,30.11,NNW,329,2.0,7.0,65,0.00,,OVC045,0.00,VWS V14.01,2013-02-28 22:49:00,
2013-02-28 16:54:00,41.8,30.9,30.11,NNW,341,0.0,7.0,65,0.00,,OVC045,0.00,VWS V14.01,2013-02-28 22:54:00,
2013-02-28 16:59:00,41.7,30.8,30.11,NW,313,1.0,5.0,65,0.00,,OVC045,0.00,VWS V14.01,2013-02-28 22:59:00,
2013-02-28 17:04:00,41.6,31.1,30.11,NNW,331,1.0,3.0,66,0.00,,OVC045,0.00,VWS V14.01,2013-02-28 23:04:00,
2013-02-28 17:09:00,41.6,31.1,30.11,NNW,333,0.0,3.0,66,0.00,,OVC038,0.00,VWS V14.01,2013-02-28 23:09:00,
2013-02-28 17:14:00,41.5,31.0,30.11,WNW,298,0.0,3.0,66,0.00,,OVC038,0.00,VWS V14.01,2013-02-28 23:14:00,
2013-02-28 17:19:00,41.5,31.0,30.11,NNW,333,0.0,2.0,66,0.00,,OVC038,0.00,VWS V14.01,2013-02-28 23:19:00,
2013-02-28 17:24:00,41.4,30.9,30.12,NW,313,0.0,4.0,66,0.00,,OVC038,0.00,VWS V14.01,2013-02-28 23:24:00,
2013-02-28 17:29:00,41.3,31.2,30.12,NNW,331,0.0,1.0,67,0.00,,OVC038,0.00,VWS V14.01,2013-02-28 23:29:00,
2013-02-28 17:34:00,41.3,31.2,30.12,WNW,288,1.0,1.0,67,0.00,,OVC038,0.00,VWS V14.01,2013-02-28 23:34:00,
2013-02-28 17:39:00,41.2,31.1,30.12,WNW,288,0.0,0.0,67,0.00,,OVC038,0.00,VWS V14.01,2013-02-28 23:39:00,
2013-02-28 17:44:00,41.2,31.5,30.12,WNW,283,2.0,3.0,68,0.00,,OVC038,0.00,VWS V14.01,2013-02-28 23:44:00,
2013-02-28 17:49:00,41.1,31.4,30.12,NNW,339,0.0,1.0,68,0.00,,OVC038,0.00,VWS V14.01,2013-02-28 23:49:00,
2013-02-28 17:54:00,41.1,31.4,30.13,WNW,292,0.0,3.0,68,0.00,,OVC038,0.00,VWS V14.01,2013-02-28 23:54:00,
2013-02-28 17:59:00,41.0,31.3,30.13,WNW,292,0.0,0.0,68,0.00,,OVC038,0.00,VWS V14.01,2013-02-28 23:59:00,
2013-02-28 18:04:00,41.0,31.3,30.13,WNW,292,0.0,2.0,68,0.00,,OVC038,0.00,VWS V14.01,2013-03-01 00:04:00,
2013-02-28 18:09:00,41.0,31.3,30.13,WNW,292,0.0,0.0,68,0.00,,OVC035,0.00,VWS V14.01,2013-03-01 00:09:00,
2013-02-28 18:14:00,40.9,31.5,30.12,WNW,292,0.0,0.0,69,0.00,,OVC035,0.00,VWS V14.01,2013-03-01 00:14:00,
2013-02-28 18:19:00,40.9,31.5,30.13,WNW,292,0.0,0.0,69,0.00,,OVC035,0.00,VWS V14.01,2013-03-01 00:19:00,
2013-02-28 18:24:00,40.8,31.4,30.13,WNW,292,0.0,0.0,69,0.00,,OVC035,0.00,VWS V14.01,2013-03-01 00:24:00,
2013-02-28 18:29:00,40.7,31.3,30.13,WNW,292,0.0,0.0,69,0.00,,OVC035,0.00,VWS V14.01,2013-03-01 00:29:00,
2013-02-28 18:34:00,40.7,31.3,30.13,WNW,292,0.0,0.0,69,0.00,,OVC035,0.00,VWS V14.01,2013-03-01 00:34:00,
2013-02-28 18:39:00,40.6,31.6,30.13,WNW,292,0.0,0.0,70,0.00,,OVC035,0.00,VWS V14.01,2013-03-01 00:39:00,
2013-02-28 18:44:00,40.6,31.6,30.13,WNW,292,0.0,0.0,70,0.00,,OVC035,0.00,VWS V14.01,2013-03-01 00:44:00,
2013-02-28 18:49:00,40.6,31.6,30.13,WNW,292,0.0,0.0,70,0.00,,OVC035,0.00,VWS V14.01,2013-03-01 00:49:00,
2013-02-28 18:54:00,40.5,31.5,30.13,WNW,292,0.0,0.0,70,0.00,,OVC035,0.00,VWS V14.01,2013-03-01 00:54:00,
2013-02-28 18:59:00,40.5,31.5,30.13,WNW,292,0.0,0.0,70,0.00,,OVC035,0.00,VWS V14.01,2013-03-01 00:59:00,
2013-02-28 19:04:00,40.4,31.8,30.13,WNW,292,0.0,0.0,71,0.00,,OVC035,0.00,VWS V14.01,2013-03-01 01:04:00,
2013-02-28 19:09:00,40.4,31.8,30.13,WNW,292,0.0,0.0,71,0.00,,OVC045,0.00,VWS V14.01,2013-03-01 01:09:00,
2013-02-28 19:14:00,40.4,31.8,30.14,WNW,292,0.0,0.0,71,0.00,,OVC045,0.00,VWS V14.01,2013-03-01 01:14:00,
2013-02-28 19:19:00,40.3,31.7,30.14,WNW,292,0.0,0.0,71,0.00,,OVC045,0.00,VWS V14.01,2013-03-01 01:19:00,
2013-02-28 19:24:00,40.2,31.6,30.14,WNW,292,0.0,0.0,71,0.00,,OVC045,0.00,VWS V14.01,2013-03-01 01:24:00,
2013-02-28 19:29:00,40.2,31.9,30.13,WNW,292,0.0,0.0,72,0.00,,OVC045,0.00,VWS V14.01,2013-03-01 01:29:00,
2013-02-28 19:34:00,40.2,31.9,30.14,NW,309,2.0,2.0,72,0.00,,OVC045,0.00,VWS V14.01,2013-03-01 01:34:00,
2013-02-28 19:39:00,40.2,32.2,30.14,NW,316,0.0,2.0,73,0.00,,OVC045,0.00,VWS V14.01,2013-03-01 01:39:00,
2013-02-28 19:44:00,40.2,32.2,30.14,NNW,343,2.0,3.0,73,0.00,,OVC045,0.00,VWS V14.01,2013-03-01 01:44:00,
2013-02-28 19:49:00,40.2,32.2,30.14,NNW,342,2.0,3.0,73,0.00,,OVC045,0.00,VWS V14.01,2013-03-01 01:49:00,
2013-02-28 19:54:00,40.2,32.2,30.13,NNW,346,3.0,3.0,73,0.00,,OVC045,0.00,VWS V14.01,2013-03-01 01:54:00,
2013-02-28 19:59:00,40.2,32.2,30.13,NNW,339,6.0,6.0,73,0.00,,OVC045,0.00,VWS V14.01,2013-03-01 01:59:00,
2013-02-28 20:04:00,40.3,32.0,30.13,NNW,344,3.0,8.0,72,0.00,,OVC040,0.00,VWS V14.01,2013-03-01 02:04:00,
2013-02-28 20:09:00,40.3,31.7,30.13,North,360,7.0,9.0,71,0.00,,OVC040,0.00,VWS V14.01,2013-03-01 02:09:00,
2013-02-28 20:14:00,40.3,31.3,30.13,NNW,331,1.0,7.0,70,0.00,,OVC040,0.00,VWS V14.01,2013-03-01 02:14:00,
2013-02-28 20:19:00,40.3,31.3,30.13,NNW,336,0.0,9.0,70,0.00,,OVC040,0.00,VWS V14.01,2013-03-01 02:19:00,
2013-02-28 20:24:00,40.2,30.9,30.13,NNW,332,3.0,9.0,69,0.00,,OVC040,0.00,VWS V14.01,2013-03-01 02:24:00,
2013-02-28 20:29:00,40.2,30.9,30.13,North,5,3.0,9.0,69,0.00,,OVC040,0.00,VWS V14.01,2013-03-01 02:29:00,
2013-02-28 20:34:00,40.1,30.8,30.13,NNW,346,0.0,8.0,69,0.00,,OVC040,0.00,VWS V14.01,2013-03-01 02:34:00,
2013-02-28 20:39:00,39.8,30.8,30.13,NNW,328,4.0,8.0,70,0.00,,OVC040,0.00,VWS V14.01,2013-03-01 02:39:00,
2013-02-28 20:44:00,39.8,30.8,30.13,North,360,5.0,7.0,70,0.00,,OVC040,0.00,VWS V14.01,2013-03-01 02:44:00,
2013-02-28 20:49:00,39.8,30.8,30.14,NNW,343,2.0,5.0,70,0.00,,OVC040,0.00,VWS V14.01,2013-03-01 02:49:00,
2013-02-28 20:54:00,39.7,31.1,30.14,NNW,334,4.0,4.0,71,0.00,,OVC040,0.00,VWS V14.01,2013-03-01 02:54:00,
2013-02-28 20:59:00,39.6,31.0,30.14,NNW,337,3.0,5.0,71,0.00,,OVC040,0.00,VWS V14.01,2013-03-01 02:59:00,
2013-02-28 21:04:00,39.6,31.0,30.14,North,355,3.0,6.0,71,0.00,,OVC040,0.00,VWS V14.01,2013-03-01 03:04:00,
2013-02-28 21:09:00,39.5,30.9,30.14,NNW,334,3.0,7.0,71,0.00,,OVC048,0.00,VWS V14.01,2013-03-01 03:09:00,
2013-02-28 21:14:00,39.5,30.9,30.14,NNW,342,8.0,11.0,71,0.00,,OVC048,0.00,VWS V14.01,2013-03-01 03:14:00,
2013-02-28 21:19:00,39.4,30.8,30.14,NNW,341,4.0,13.0,71,0.00,,OVC048,0.00,VWS V14.01,2013-03-01 03:19:00,
2013-02-28 21:24:00,39.3,30.7,30.14,North,11,0.0,6.0,71,0.00,,OVC048,0.00,VWS V14.01,2013-03-01 03:24:00,
2013-02-28 21:29:00,39.2,30.6,30.14,NNW,348,5.0,7.0,71,0.00,,OVC048,0.00,VWS V14.01,2013-03-01 03:29:00,
2013-02-28 21:34:00,39.1,30.5,30.13,NNW,348,3.0,8.0,71,0.00,,OVC048,0.00,VWS V14.01,2013-03-01 03:34:00,
2013-02-28 21:39:00,38.9,30.7,30.13,NNW,343,4.0,8.0,72,0.00,,OVC048,0.00,VWS V14.01,2013-03-01 03:39:00,
2013-02-28 21:44:00,38.9,30.7,30.14,North,360,6.0,8.0,72,0.00,,OVC048,0.00,VWS V14.01,2013-03-01 03:44:00,
2013-02-28 21:49:00,38.7,30.5,30.14,North,350,3.0,5.0,72,0.00,,OVC048,0.00,VWS V14.01,2013-03-01 03:49:00,
2013-02-28 21:54:00,38.6,30.4,30.14,NNW,341,2.0,6.0,72,0.00,,OVC048,0.00,VWS V14.01,2013-03-01 03:54:00,
2013-02-28 21:59:00,38.5,30.3,30.14,NW,320,5.0,6.0,72,0.00,,OVC048,0.00,VWS V14.01,2013-03-01 03:59:00,
2013-02-28 22:04:00,38.4,30.5,30.14,North,351,3.0,10.0,73,0.00,,OVC048,0.00,VWS V14.01,2013-03-01 04:04:00,
2013-02-28 22:09:00,38.3,30.4,30.14,NNW,341,6.0,8.0,73,0.00,,OVC075,0.00,VWS V14.01,2013-03-01 04:09:00,
2013-02-28 22:14:00,38.3,30.4,30.14,NNW,343,2.0,5.0,73,0.00,,OVC075,0.00,VWS V14.01,2013-03-01 04:14:00,
2013-02-28 22:19:00,38.2,30.7,30.14,WNW,300,5.0,7.0,74,0.00,,OVC075,0.00,VWS V14.01,2013-03-01 04:19:00,
2013-02-28 22:24:00,38.1,30.6,30.14,NNW,334,3.0,8.0,74,0.00,,OVC075,0.00,VWS V14.01,2013-03-01 04:24:00,
2013-02-28 22:29:00,37.9,30.4,30.13,North,350,3.0,6.0,74,0.00,,OVC075,0.00,VWS V14.01,2013-03-01 04:29:00,
2013-02-28 22:34:00,37.6,30.4,30.13,North,351,1.0,3.0,75,0.00,,OVC075,0.00,VWS V14.01,2013-03-01 04:34:00,
2013-02-28 22:39:00,37.2,30.4,30.13,NNW,342,1.0,5.0,76,0.00,,OVC075,0.00,VWS V14.01,2013-03-01 04:39:00,
2013-02-28 22:44:00,37.1,30.6,30.13,NNW,338,3.0,6.0,77,0.00,,OVC075,0.00,VWS V14.01,2013-03-01 04:44:00,
2013-02-28 22:49:00,37.3,30.8,30.13,NW,321,2.0,7.0,77,0.00,,OVC075,0.00,VWS V14.01,2013-03-01 04:49:00,
2013-02-28 22:54:00,37.4,31.2,30.13,NNW,336,5.0,7.0,78,0.00,,OVC075,0.00,VWS V14.01,2013-03-01 04:54:00,
2013-02-28 22:59:00,37.4,31.2,30.13,NNE,13,1.0,7.0,78,0.00,,OVC075,0.00,VWS V14.01,2013-03-01 04:59:00,
2013-02-28 23:00:00,37.4,31.2,30.13,NNW,342,2.0,7.0,78,0.00,,OVC075,0.00,VWS V14.01,2013-03-01 05:00:00,
2013-02-28 23:05:00,37.4,31.2,30.13,North,351,5.0,8.0,78,0.00,,OVC075,0.00,VWS V14.01,2013-03-01 05:05:00,
2013-02-28 23:06:00,37.3,31.1,30.13,North,5,5.0,8.0,78,0.00,,OVC026,0.00,VWS V14.01,2013-03-01 05:06:00,
2013-02-28 23:11:00,37.0,30.8,30.13,NNW,336,4.0,9.0,78,0.00,,OVC026,0.00,VWS V14.01,2013-03-01 05:11:00,
2013-02-28 23:16:00,36.7,30.5,30.13,NNW,348,2.0,10.0,78,0.00,,OVC026,0.00,VWS V14.01,2013-03-01 05:16:00,
2013-02-28 23:21:00,36.4,30.5,30.13,NNW,345,8.0,8.0,79,0.00,,OVC026,0.00,VWS V14.01,2013-03-01 05:21:00,
2013-02-28 23:26:00,36.1,30.2,30.13,North,360,1.0,6.0,79,0.00,,OVC026,0.00,VWS V14.01,2013-03-01 05:26:00,
2013-02-28 23:31:00,36.0,30.4,30.12,NW,320,0.0,5.0,80,0.00,,OVC026,0.00,VWS V14.01,2013-03-01 05:31:00,
2013-02-28 23:36:00,35.9,30.3,30.13,North,351,4.0,6.0,80,0.00,,OVC026,0.00,VWS V14.01,2013-03-01 05:36:00,
2013-02-28 23:41:00,35.9,30.3,30.13,NNW,340,3.0,9.0,80,0.00,,OVC026,0.00,VWS V14.01,2013-03-01 05:41:00,
2013-02-28 23:46:00,35.7,30.1,30.13,NNW,330,5.0,6.0,80,0.00,,OVC026,0.00,VWS V14.01,2013-03-01 05:46:00,
2013-02-28 23:51:00,35.6,30.0,30.13,North,355,3.0,6.0,80,0.00,,OVC026,0.00,VWS V14.01,2013-03-01 05:51:00,
2013-02-28 23:56:00,35.4,30.2,30.13,North,351,1.0,6.0,81,0.00,,OVC026,0.00,VWS V14.01,2013-03-01 05:56:00,